,,Stat5,,Stat1,,Stat2,,Stat3,,Stat4,,Wind1,,Wind1,
time,status,PA1M_AVG,status,PR1M_SUM,status,RH1M_AVG,status,SR1M_AVG,status,TA1M_AVG,status,W1dAve1m,status,W1sAve1m,
2001-01-02, 00:00:01,VALID,917.038,VALID,0,VALID,96.3813,VALID,0.0169808,VALID,19.5327,VALID,90,VALID,0.820518,
2001-01-02, 00:01:00,VALID,917.038,VALID,0,VALID,96.4029,VALID,0.0169808,VALID,19.5329,VALID,90,VALID,0.686233,
2001-01-02, 00:02:00,VALID,917.028,VALID,0,VALID,96.4805,VALID,0.0169808,VALID,19.5558,VALID,94,VALID,0.645833,
2001-01-02, 00:03:00,VALID,917.009,VALID,0,VALID,96.3711,VALID,0.0169808,VALID,19.5327,VALID,87,VALID,0.642681,
2001-01-02, 00:04:00,VALID,917,VALID,0,VALID,96.5161,VALID,0,VALID,19.5198,VALID,72,VALID,0.453776,
2001-01-02, 00:05:00,VALID,916.989,VALID,0,VALID,96.3914,VALID,-0.0509425,VALID,19.5242,VALID,74,VALID,0.678865,
2001-01-02, 00:06:00,VALID,916.981,VALID,0,VALID,96.4334,VALID,-0.118866,VALID,19.5314,VALID,92,VALID,0.717061,
2001-01-02, 00:07:00,VALID,916.971,VALID,0,VALID,96.5046,VALID,-0.0849042,VALID,19.5508,VALID,93,VALID,0.758929,
2001-01-02, 00:08:00,VALID,916.958,VALID,0,VALID,96.2973,VALID,-0.118866,VALID,19.5406,VALID,91,VALID,0.876402,
2001-01-02, 00:09:00,VALID,916.952,VALID,0,VALID,96.2388,VALID,-0.0509425,VALID,19.5215,VALID,91,VALID,0.674716,
2001-01-02, 00:10:00,VALID,916.945,VALID,0,VALID,96.5618,VALID,-0.0849042,VALID,19.5401,VALID,88,VALID,0.407143,
2001-01-02, 00:11:00,VALID,916.935,VALID,0,VALID,96.3914,VALID,-0.0849042,VALID,19.525,VALID,75,VALID,0.0086571,
2001-01-02, 00:12:00,VALID,916.92,VALID,0,VALID,96.2795,VALID,-0.101885,VALID,19.5088,VALID,68,VALID,0,
2001-01-02, 00:13:00,VALID,916.917,VALID,0,VALID,96.3202,VALID,-0.0849042,VALID,19.5088,VALID,53,VALID,0,
2001-01-02, 00:14:00,VALID,916.893,VALID,0,VALID,96.2973,VALID,-0.101885,VALID,19.5056,VALID,53,VALID,0,
2001-01-02, 00:15:00,VALID,916.895,VALID,0,VALID,96.2452,VALID,-0.118866,VALID,19.4991,VALID,88,VALID,0,
2001-01-02, 00:16:00,VALID,916.893,VALID,0,VALID,96.4207,VALID,-0.0849042,VALID,19.4954,VALID,95,VALID,0,
2001-01-02, 00:17:00,VALID,916.896,VALID,0,VALID,96.6496,VALID,-0.0849042,VALID,19.4949,VALID,93,VALID,0,
2001-01-02, 00:18:00,VALID,916.885,VALID,0,VALID,96.558,VALID,-0.0509425,VALID,19.4949,VALID,84,VALID,0,
2001-01-02, 00:19:00,VALID,916.902,VALID,0,VALID,96.3546,VALID,-0.101885,VALID,19.482,VALID,83,VALID,0,
2001-01-02, 00:20:00,VALID,916.902,VALID,0,VALID,96.1791,VALID,-0.0339617,VALID,19.4914,VALID,67,VALID,0,
2001-01-02, 00:21:00,VALID,916.915,VALID,0,VALID,96.1511,VALID,0,VALID,19.4932,VALID,86,VALID,0,
2001-01-02, 00:22:00,VALID,916.915,VALID,0,VALID,96.4423,VALID,0.0339617,VALID,19.5225,VALID,98,VALID,0,
2001-01-02, 00:23:00,VALID,916.91,VALID,0,VALID,96.511,VALID,0.0169808,VALID,19.5521,VALID,103,VALID,0,
2001-01-02, 00:24:00,VALID,916.911,VALID,0,VALID,96.469,VALID,0.0169808,VALID,19.5879,VALID,105,VALID,0,
2001-01-02, 00:25:00,VALID,916.907,VALID,0,VALID,96.4283,VALID,0.0169808,VALID,19.5879,VALID,105,VALID,0,
2001-01-02, 00:26:00,VALID,916.894,VALID,0,VALID,96.2121,VALID,0.0339617,VALID,19.5817,VALID,105,VALID,0,
2001-01-02, 00:27:00,VALID,916.887,VALID,0,VALID,96.0659,VALID,0.0509425,VALID,19.5717,VALID,105,VALID,0,
2001-01-02, 00:28:00,VALID,916.873,VALID,0,VALID,96.2681,VALID,0.0169808,VALID,19.5742,VALID,99,VALID,0,
2001-01-02, 00:29:00,VALID,916.866,VALID,0,VALID,96.0659,VALID,0,VALID,19.5588,VALID,86,VALID,0.0753038,
2001-01-02, 00:30:00,VALID,916.853,VALID,0,VALID,95.9197,VALID,0,VALID,19.5551,VALID,73,VALID,0.792352,
2001-01-02, 00:31:00,VALID,916.836,VALID,0,VALID,95.968,VALID,0,VALID,19.5978,VALID,90,VALID,0.573902,
2001-01-02, 00:32:00,VALID,916.824,VALID,0,VALID,95.9426,VALID,0,VALID,19.6078,VALID,96,VALID,0.407169,
2001-01-02, 00:33:00,VALID,916.802,VALID,0,VALID,95.8357,VALID,0,VALID,19.5909,VALID,96,VALID,0.557771,
2001-01-02, 00:34:00,VALID,916.797,VALID,0,VALID,95.5649,VALID,0.0169808,VALID,19.5618,VALID,87,VALID,0.505279,
2001-01-02, 00:35:00,VALID,916.784,VALID,0,VALID,95.7874,VALID,0,VALID,19.5561,VALID,89,VALID,0.827097,
2001-01-02, 00:36:00,VALID,916.77,VALID,0,VALID,95.8714,VALID,0.0169808,VALID,19.5429,VALID,86,VALID,1.02154,
2001-01-02, 00:37:00,VALID,916.753,VALID,0,VALID,96.071,VALID,0,VALID,19.562,VALID,92,VALID,0.813839,
2001-01-02, 00:38:00,VALID,916.732,VALID,0,VALID,96.0201,VALID,0,VALID,19.5655,VALID,97,VALID,0.933093,
2001-01-02, 00:39:00,VALID,916.691,VALID,0,VALID,95.804,VALID,0.0169808,VALID,19.5265,VALID,102,VALID,1.183,
2001-01-02, 00:40:00,VALID,916.669,VALID,0,VALID,95.7645,VALID,0,VALID,19.5165,VALID,105,VALID,0.906696,
2001-01-02, 00:41:00,VALID,916.655,VALID,0,VALID,95.7722,VALID,0.0169808,VALID,19.5039,VALID,107,VALID,0.720228,
2001-01-02, 00:42:00,VALID,916.63,VALID,0,VALID,95.8154,VALID,0.0169808,VALID,19.4977,VALID,113,VALID,0.5644,
2001-01-02, 00:43:00,VALID,916.611,VALID,0,VALID,95.9311,VALID,0.0169808,VALID,19.5011,VALID,118,VALID,0.691612,
2001-01-02, 00:44:00,VALID,916.578,VALID,0,VALID,95.8968,VALID,0,VALID,19.4977,VALID,123,VALID,0.721788,
2001-01-02, 00:45:00,VALID,916.557,VALID,0,VALID,95.9604,VALID,0.0339617,VALID,19.4775,VALID,119,VALID,0.891036,
2001-01-02, 00:46:00,VALID,916.539,VALID,0,VALID,96.0252,VALID,0.0169808,VALID,19.4716,VALID,118,VALID,1.13218,
2001-01-02, 00:47:00,VALID,916.515,VALID,0,VALID,96.0608,VALID,0.0339617,VALID,19.4485,VALID,113,VALID,0.990579,
2001-01-02, 00:48:00,VALID,916.499,VALID,0,VALID,96.1918,VALID,0.0509425,VALID,19.4258,VALID,121,VALID,0.771587,
2001-01-02, 00:49:00,VALID,916.488,VALID,0,VALID,96.3419,VALID,0.0169808,VALID,19.4164,VALID,119,VALID,0.592694,
2001-01-02, 00:50:00,VALID,916.487,VALID,0,VALID,96.4258,VALID,-0.0339617,VALID,19.4276,VALID,123,VALID,0.394942,
2001-01-02, 00:51:00,VALID,916.479,VALID,0,VALID,96.5021,VALID,-0.0679233,VALID,19.4141,VALID,128,VALID,0.432644,
2001-01-02, 00:52:00,VALID,916.469,VALID,0,VALID,96.511,VALID,-0.0849042,VALID,19.4154,VALID,132,VALID,0.542634,
2001-01-02, 00:53:00,VALID,916.455,VALID,0,VALID,96.6025,VALID,-0.0849042,VALID,19.4181,VALID,135,VALID,0.571514,
2001-01-02, 00:54:00,VALID,916.432,VALID,0,VALID,96.675,VALID,-0.0849042,VALID,19.4213,VALID,139,VALID,0.55303,
2001-01-02, 00:55:00,VALID,916.391,VALID,0,VALID,96.5517,VALID,-0.101885,VALID,19.4248,VALID,154,VALID,0.535937,
2001-01-02, 00:56:00,VALID,916.369,VALID,0,VALID,96.5529,VALID,-0.101885,VALID,19.4213,VALID,144,VALID,0.514569,
2001-01-02, 00:57:00,VALID,916.349,VALID,0,VALID,96.6051,VALID,-0.0509425,VALID,19.441,VALID,136,VALID,0.160473,
2001-01-02, 00:58:00,VALID,916.333,VALID,0,VALID,96.5542,VALID,-0.0849042,VALID,19.4539,VALID,136,VALID,0.00925164,
2001-01-02, 00:59:00,VALID,916.318,VALID,0,VALID,96.6254,VALID,-0.0849042,VALID,19.4539,VALID,136,VALID,0,
2001-01-02, 01:00:00,VALID,916.295,VALID,0,VALID,96.6318,VALID,-0.101885,VALID,19.4539,VALID,126,VALID,0.0972451,
2001-01-02, 01:01:00,VALID,916.274,VALID,0,VALID,96.4563,VALID,-0.101885,VALID,19.441,VALID,110,VALID,0.254645,
2001-01-02, 01:02:00,VALID,916.247,VALID,0,VALID,96.4944,VALID,-0.0849042,VALID,19.4511,VALID,117,VALID,0.382813,
2001-01-02, 01:03:00,VALID,916.221,VALID,0,VALID,96.5415,VALID,-0.101885,VALID,19.4372,VALID,117,VALID,0.0705181,
2001-01-02, 01:04:00,VALID,916.208,VALID,0,VALID,96.3953,VALID,-0.118866,VALID,19.4447,VALID,106,VALID,0.493666,
2001-01-02, 01:05:00,VALID,916.191,VALID,0,VALID,96.4181,VALID,-0.0509425,VALID,19.4305,VALID,104,VALID,0.342722,
2001-01-02, 01:06:00,VALID,916.182,VALID,0,VALID,96.558,VALID,0,VALID,19.4432,VALID,102,VALID,0.441934,
2001-01-02, 01:07:00,VALID,916.18,VALID,0,VALID,96.4754,VALID,-0.0169808,VALID,19.4171,VALID,97,VALID,0.450446,
2001-01-02, 01:08:00,VALID,916.167,VALID,0,VALID,96.3775,VALID,0.0169808,VALID,19.4042,VALID,87,VALID,0.648237,
2001-01-02, 01:09:00,VALID,916.155,VALID,0,VALID,96.5046,VALID,0,VALID,19.4074,VALID,86,VALID,0.5509,
2001-01-02, 01:10:00,VALID,916.148,VALID,0,VALID,96.4054,VALID,0,VALID,19.404,VALID,80,VALID,0.539732,
2001-01-02, 01:11:00,VALID,916.139,VALID,0,VALID,96.2973,VALID,0,VALID,19.4007,VALID,75,VALID,0.565245,
2001-01-02, 01:12:00,VALID,916.122,VALID,0,VALID,96.2528,VALID,0,VALID,19.394,VALID,71,VALID,0.490076,
2001-01-02, 01:13:00,VALID,916.124,VALID,0,VALID,96.2223,VALID,0.0169808,VALID,19.391,VALID,76,VALID,0.484581,
2001-01-02, 01:14:00,VALID,916.11,VALID,0,VALID,96.2071,VALID,0,VALID,19.3876,VALID,81,VALID,0.605903,
2001-01-02, 01:15:00,VALID,916.099,VALID,0,VALID,96.2338,VALID,-0.0169808,VALID,19.391,VALID,70,VALID,0.618215,
2001-01-02, 01:16:00,VALID,916.082,VALID,0,VALID,96.113,VALID,0,VALID,19.3811,VALID,65,VALID,0.785684,
2001-01-02, 01:17:00,VALID,916.056,VALID,0,VALID,96.0176,VALID,0,VALID,19.3717,VALID,62,VALID,0.881727,
2001-01-02, 01:18:00,VALID,916.056,VALID,0,VALID,96.0659,VALID,-0.0169808,VALID,19.3754,VALID,61,VALID,0.710526,
2001-01-02, 01:19:00,VALID,916.041,VALID,0,VALID,96.2681,VALID,0,VALID,19.3813,VALID,77,VALID,0.442779,
2001-01-02, 01:20:00,VALID,916.022,VALID,0,VALID,96.4131,VALID,0,VALID,19.3652,VALID,64,VALID,0.277549,
2001-01-02, 01:21:00,VALID,915.998,VALID,0,VALID,96.5453,VALID,0,VALID,19.3654,VALID,77,VALID,0.225507,
2001-01-02, 01:22:00,VALID,915.977,VALID,0,VALID,96.6763,VALID,0,VALID,19.356,VALID,72,VALID,0.241964,
2001-01-02, 01:23:00,VALID,915.955,VALID,0,VALID,96.7551,VALID,0,VALID,19.3364,VALID,46,VALID,0.321114,
2001-01-02, 01:24:00,VALID,915.938,VALID,0,VALID,96.9306,VALID,0,VALID,19.3167,VALID,73,VALID,0.283381,
2001-01-02, 01:25:00,VALID,915.912,VALID,0,VALID,97.0857,VALID,0,VALID,19.317,VALID,89,VALID,0.385491,
2001-01-02, 01:26:00,VALID,915.896,VALID,0,VALID,97.1328,VALID,0,VALID,19.3006,VALID,63,VALID,0.350718,
2001-01-02, 01:27:00,VALID,915.878,VALID,0,VALID,97.1264,VALID,0,VALID,19.2911,VALID,68,VALID,0.587838,
2001-01-02, 01:28:00,VALID,915.86,VALID,0,VALID,97.1875,VALID,0.0169808,VALID,19.278,VALID,63,VALID,0.524054,
2001-01-02, 01:29:00,VALID,915.843,VALID,0,VALID,97.1748,VALID,0.0169808,VALID,19.2713,VALID,76,VALID,0.409722,
2001-01-02, 01:30:00,VALID,915.837,VALID,0,VALID,97.1862,VALID,0.0509425,VALID,19.2877,VALID,69,VALID,0.759457,
2001-01-02, 01:31:00,VALID,915.825,VALID,0,VALID,97.087,VALID,0.0169808,VALID,19.2881,VALID,46,VALID,0.719595,
2001-01-02, 01:32:00,VALID,915.819,VALID,0,VALID,97.0527,VALID,0,VALID,19.3011,VALID,46,VALID,0.136259,
2001-01-02, 01:33:00,VALID,915.804,VALID,0,VALID,97.0705,VALID,0,VALID,19.3237,VALID,57,VALID,0,
2001-01-02, 01:34:00,VALID,915.8,VALID,0,VALID,97.0005,VALID,0,VALID,19.3364,VALID,78,VALID,0.404561,
2001-01-02, 01:35:00,VALID,915.795,VALID,0,VALID,97.0044,VALID,0,VALID,19.3334,VALID,88,VALID,0.0575658,
2001-01-02, 01:36:00,VALID,915.8,VALID,0,VALID,97.0552,VALID,0,VALID,19.3343,VALID,84,VALID,0,
2001-01-02, 01:37:00,VALID,915.784,VALID,0,VALID,97.1442,VALID,0,VALID,19.3336,VALID,79,VALID,0.000892857,
2001-01-02, 01:38:00,VALID,915.773,VALID,0,VALID,97.1252,VALID,0.0169808,VALID,19.3301,VALID,63,VALID,0.14383,
2001-01-02, 01:39:00,VALID,915.766,VALID,0,VALID,97.1748,VALID,0,VALID,19.3465,VALID,68,VALID,0.514678,
2001-01-02, 01:40:00,VALID,915.769,VALID,0,VALID,97.1722,VALID,0,VALID,19.35,VALID,59,VALID,0.456473,
2001-01-02, 01:41:00,VALID,915.763,VALID,0,VALID,97.162,VALID,0,VALID,19.349,VALID,67,VALID,0.78484,
2001-01-02, 01:42:00,VALID,915.754,VALID,0,VALID,97.1404,VALID,0,VALID,19.3523,VALID,74,VALID,0.809755,
2001-01-02, 01:43:00,VALID,915.745,VALID,0,VALID,97.045,VALID,0.0169808,VALID,19.3659,VALID,57,VALID,1.09622,
2001-01-02, 01:44:00,VALID,915.744,VALID,0,VALID,96.9929,VALID,0,VALID,19.3622,VALID,76,VALID,0.961589,
2001-01-02, 01:45:00,VALID,915.718,VALID,0,VALID,97.073,VALID,-0.0169808,VALID,19.3851,VALID,86,VALID,1.00391,
2001-01-02, 01:46:00,VALID,915.718,VALID,0,VALID,97.0705,VALID,0.0169808,VALID,19.388,VALID,95,VALID,0.67272,
2001-01-02, 01:47:00,VALID,915.705,VALID,0,VALID,97.0654,VALID,0.0169808,VALID,19.3915,VALID,85,VALID,0.668199,
2001-01-02, 01:48:00,VALID,915.685,VALID,0,VALID,97.0616,VALID,0,VALID,19.388,VALID,79,VALID,0.909951,
2001-01-02, 01:49:00,VALID,915.678,VALID,0,VALID,97.1124,VALID,0,VALID,19.3846,VALID,88,VALID,0.946579,
2001-01-02, 01:50:00,VALID,915.66,VALID,0,VALID,97.0743,VALID,0.0169808,VALID,19.4012,VALID,72,VALID,0.886719,
2001-01-02, 01:51:00,VALID,915.635,VALID,0,VALID,97.1735,VALID,0.0169808,VALID,19.3878,VALID,90,VALID,0.93201,
2001-01-02, 01:52:00,VALID,915.632,VALID,0,VALID,97.19,VALID,0,VALID,19.3913,VALID,89,VALID,1.05335,
2001-01-02, 01:53:00,VALID,915.611,VALID,0,VALID,97.1964,VALID,0,VALID,19.398,VALID,90,VALID,1.05148,
2001-01-02, 01:54:00,VALID,915.593,VALID,0,VALID,97.2332,VALID,0,VALID,19.3915,VALID,93,VALID,1.06037,
2001-01-02, 01:55:00,VALID,915.581,VALID,0,VALID,97.2154,VALID,0,VALID,19.3848,VALID,82,VALID,0.847098,
2001-01-02, 01:56:00,VALID,915.583,VALID,0,VALID,97.2167,VALID,0.0339617,VALID,19.3719,VALID,84,VALID,0.943201,
2001-01-02, 01:57:00,VALID,915.569,VALID,0,VALID,97.2218,VALID,0.0169808,VALID,19.3751,VALID,84,VALID,0.809333,
2001-01-02, 01:58:00,VALID,915.561,VALID,0,VALID,97.218,VALID,0,VALID,19.3719,VALID,88,VALID,1.2942,
2001-01-02, 01:59:00,VALID,915.537,VALID,0,VALID,97.1976,VALID,0.0169808,VALID,19.3786,VALID,80,VALID,1.15039,
2001-01-02, 02:00:00,VALID,915.517,VALID,0,VALID,97.2129,VALID,0.0849042,VALID,19.3781,VALID,93,VALID,1.22142,
2001-01-02, 02:01:00,VALID,915.493,VALID,0,VALID,97.1951,VALID,0,VALID,19.3811,VALID,88,VALID,1.36444,
2001-01-02, 02:02:00,VALID,915.475,VALID,0,VALID,97.1836,VALID,0,VALID,19.3816,VALID,88,VALID,1.31503,
2001-01-02, 02:03:00,VALID,915.467,VALID,0,VALID,97.2065,VALID,0.0339617,VALID,19.3746,VALID,81,VALID,1.04585,
2001-01-02, 02:04:00,VALID,915.46,VALID,0,VALID,97.2193,VALID,0,VALID,19.3784,VALID,90,VALID,1.15646,
2001-01-02, 02:05:00,VALID,915.447,VALID,0,VALID,97.2536,VALID,0,VALID,19.3816,VALID,85,VALID,0.902344,
2001-01-02, 02:06:00,VALID,915.434,VALID,0,VALID,97.2676,VALID,0.0339617,VALID,19.395,VALID,91,VALID,0.656883,
2001-01-02, 02:07:00,VALID,915.418,VALID,0,VALID,97.2205,VALID,0.0169808,VALID,19.3712,VALID,76,VALID,0.74375,
2001-01-02, 02:08:00,VALID,915.406,VALID,0,VALID,97.2701,VALID,0.0339617,VALID,19.3719,VALID,82,VALID,0.667468,
2001-01-02, 02:09:00,VALID,915.393,VALID,0,VALID,97.2803,VALID,0,VALID,19.3622,VALID,80,VALID,0.688447,
2001-01-02, 02:10:00,VALID,915.384,VALID,0,VALID,97.2841,VALID,0.0169808,VALID,19.3627,VALID,51,VALID,0.684375,
2001-01-02, 02:11:00,VALID,915.382,VALID,0,VALID,97.3299,VALID,0.0169808,VALID,19.356,VALID,21,VALID,0.39527,
2001-01-02, 02:12:00,VALID,915.377,VALID,0,VALID,97.3935,VALID,0,VALID,19.3557,VALID,315,VALID,0.0637669,
2001-01-02, 02:13:00,VALID,915.372,VALID,0,VALID,97.4278,VALID,0.0339617,VALID,19.3652,VALID,315,VALID,0,
2001-01-02, 02:14:00,VALID,915.378,VALID,0,VALID,97.4481,VALID,0.0169808,VALID,19.3654,VALID,309,VALID,0.000868056,
2001-01-02, 02:15:00,VALID,915.369,VALID,0,VALID,97.5283,VALID,0,VALID,19.3562,VALID,303,VALID,0,
2001-01-02, 02:16:00,VALID,915.364,VALID,0,VALID,97.5918,VALID,0.0509425,VALID,19.3721,VALID,303,VALID,0,
2001-01-02, 02:17:00,VALID,915.37,VALID,0,VALID,97.6224,VALID,0.0169808,VALID,19.3744,VALID,295,VALID,0,
2001-01-02, 02:18:00,VALID,915.368,VALID,0,VALID,97.6325,VALID,0.0339617,VALID,19.3973,VALID,333,VALID,0.151727,
2001-01-02, 02:19:00,VALID,915.365,VALID,0,VALID,97.4939,VALID,0,VALID,19.394,VALID,354,VALID,0.282728,
2001-01-02, 02:20:00,VALID,915.357,VALID,0,VALID,97.4278,VALID,-0.0169808,VALID,19.4074,VALID,313,VALID,0.0886102,
2001-01-02, 02:21:00,VALID,915.357,VALID,0,VALID,97.3884,VALID,0.0509425,VALID,19.3809,VALID,319,VALID,0,
2001-01-02, 02:22:00,VALID,915.344,VALID,0,VALID,97.3451,VALID,0.0169808,VALID,19.391,VALID,346,VALID,0,
2001-01-02, 02:23:00,VALID,915.333,VALID,0,VALID,97.4354,VALID,0.0339617,VALID,19.3943,VALID,347,VALID,0.0152244,
2001-01-02, 02:24:00,VALID,915.338,VALID,0,VALID,97.4545,VALID,0.0339617,VALID,19.3943,VALID,351,VALID,0.204309,
2001-01-02, 02:25:00,VALID,915.324,VALID,0,VALID,97.5155,VALID,0,VALID,19.3975,VALID,351,VALID,0.0245536,
2001-01-02, 02:26:00,VALID,915.31,VALID,0,VALID,97.5956,VALID,0,VALID,19.4104,VALID,351,VALID,0,
2001-01-02, 02:27:00,VALID,915.301,VALID,0,VALID,97.6338,VALID,0.0169808,VALID,19.4107,VALID,351,VALID,0,
2001-01-02, 02:28:00,VALID,915.3,VALID,0,VALID,97.6084,VALID,0.0169808,VALID,19.4044,VALID,351,VALID,0.0205592,
2001-01-02, 02:29:00,VALID,915.291,VALID,0,VALID,97.6046,VALID,0,VALID,19.3846,VALID,350,VALID,0,
2001-01-02, 02:30:00,VALID,915.281,VALID,0,VALID,97.6796,VALID,0.0169808,VALID,19.3918,VALID,349,VALID,0,
2001-01-02, 02:31:00,VALID,915.275,VALID,0,VALID,97.7635,VALID,0.0339617,VALID,19.391,VALID,348,VALID,0,
2001-01-02, 02:32:00,VALID,915.273,VALID,0,VALID,97.7864,VALID,0.0169808,VALID,19.388,VALID,348,VALID,0,
2001-01-02, 02:33:00,VALID,915.256,VALID,0,VALID,97.794,VALID,0.0169808,VALID,19.3751,VALID,331,VALID,0,
2001-01-02, 02:34:00,VALID,915.257,VALID,0,VALID,97.7584,VALID,0.0169808,VALID,19.3391,VALID,315,VALID,0,
2001-01-02, 02:35:00,VALID,915.258,VALID,0,VALID,97.7737,VALID,-0.0169808,VALID,19.3267,VALID,315,VALID,0,
2001-01-02, 02:36:00,VALID,915.243,VALID,0,VALID,97.8411,VALID,0,VALID,19.3262,VALID,315,VALID,0,
2001-01-02, 02:37:00,VALID,915.227,VALID,0,VALID,97.9034,VALID,0,VALID,19.3299,VALID,315,VALID,0,
2001-01-02, 02:38:00,VALID,915.223,VALID,0,VALID,97.9848,VALID,0,VALID,19.3329,VALID,315,VALID,0,
2001-01-02, 02:39:00,VALID,915.211,VALID,0,VALID,98.0089,VALID,0,VALID,19.3391,VALID,315,VALID,0,
2001-01-02, 02:40:00,VALID,915.221,VALID,0,VALID,98.0318,VALID,0.0169808,VALID,19.3326,VALID,315,VALID,0,
2001-01-02, 02:41:00,VALID,915.201,VALID,0,VALID,98.0216,VALID,0.0169808,VALID,19.3329,VALID,315,VALID,0,
2001-01-02, 02:42:00,VALID,915.196,VALID,0,VALID,98.0178,VALID,0,VALID,19.3135,VALID,315,VALID,0,
2001-01-02, 02:43:00,VALID,915.195,VALID,0,VALID,98.0305,VALID,0,VALID,19.3234,VALID,315,VALID,0,
2001-01-02, 02:44:00,VALID,915.178,VALID,0,VALID,98.0522,VALID,0,VALID,19.3331,VALID,315,VALID,0,
2001-01-02, 02:45:00,VALID,915.181,VALID,0,VALID,98.0471,VALID,0,VALID,19.317,VALID,315,VALID,0,
2001-01-02, 02:46:00,VALID,915.174,VALID,0,VALID,98.042,VALID,-0.0169808,VALID,19.3267,VALID,315,VALID,0,
2001-01-02, 02:47:00,VALID,915.173,VALID,0,VALID,98.0967,VALID,0,VALID,19.3197,VALID,315,VALID,0,
2001-01-02, 02:48:00,VALID,915.15,VALID,0,VALID,98.1768,VALID,0.0339617,VALID,19.3587,VALID,315,VALID,0,
2001-01-02, 02:49:00,VALID,915.144,VALID,0,VALID,98.2747,VALID,0,VALID,19.3878,VALID,315,VALID,0.147804,
2001-01-02, 02:50:00,VALID,915.116,VALID,0,VALID,98.3294,VALID,0.0169808,VALID,19.4072,VALID,315,VALID,0.119655,
2001-01-02, 02:51:00,VALID,915.111,VALID,0,VALID,98.3599,VALID,0.0169808,VALID,19.4266,VALID,315,VALID,0,
2001-01-02, 02:52:00,VALID,915.102,VALID,0,VALID,98.3484,VALID,0.0169808,VALID,19.4268,VALID,317,VALID,0,
2001-01-02, 02:53:00,VALID,915.105,VALID,0,VALID,98.2543,VALID,0,VALID,19.391,VALID,318,VALID,0,
2001-01-02, 02:54:00,VALID,915.108,VALID,0,VALID,98.3014,VALID,0,VALID,19.3945,VALID,318,VALID,0,
2001-01-02, 02:55:00,VALID,915.098,VALID,0,VALID,98.3027,VALID,0,VALID,19.4074,VALID,318,VALID,0,
2001-01-02, 02:56:00,VALID,915.097,VALID,0,VALID,98.3001,VALID,0.0169808,VALID,19.404,VALID,318,VALID,0,
2001-01-02, 02:57:00,VALID,915.091,VALID,0,VALID,98.2836,VALID,0,VALID,19.4074,VALID,318,VALID,0,
2001-01-02, 02:58:00,VALID,915.086,VALID,0,VALID,98.2861,VALID,0,VALID,19.3973,VALID,318,VALID,0,
2001-01-02, 02:59:00,VALID,915.084,VALID,0,VALID,98.2976,VALID,0.0339617,VALID,19.4067,VALID,318,VALID,0,
2001-01-02, 03:00:00,VALID,915.083,VALID,0,VALID,98.3256,VALID,0.0169808,VALID,19.4266,VALID,318,VALID,0,
2001-01-02, 03:01:00,VALID,915.085,VALID,0,VALID,98.2938,VALID,0,VALID,19.4233,VALID,328,VALID,0,
2001-01-02, 03:02:00,VALID,915.084,VALID,0,VALID,98.2658,VALID,0,VALID,19.4268,VALID,93,VALID,0.462776,
2001-01-02, 03:03:00,VALID,915.076,VALID,0,VALID,98.2976,VALID,0,VALID,19.4263,VALID,99,VALID,0.691612,
2001-01-02, 03:04:00,VALID,915.068,VALID,0,VALID,98.3014,VALID,0,VALID,19.4397,VALID,97,VALID,0.634713,
2001-01-02, 03:05:00,VALID,915.072,VALID,0,VALID,98.2836,VALID,0,VALID,19.4333,VALID,92,VALID,0.757401,
2001-01-02, 03:06:00,VALID,915.062,VALID,0,VALID,98.2531,VALID,0.0169808,VALID,19.4201,VALID,94,VALID,0.819257,
2001-01-02, 03:07:00,VALID,915.042,VALID,0,VALID,98.1882,VALID,0,VALID,19.3975,VALID,97,VALID,0.799554,
2001-01-02, 03:08:00,VALID,915.039,VALID,0,VALID,98.2416,VALID,0.0339617,VALID,19.4005,VALID,93,VALID,0.817308,
2001-01-02, 03:09:00,VALID,915.042,VALID,0,VALID,98.1831,VALID,0,VALID,19.3846,VALID,86,VALID,0.909564,
2001-01-02, 03:10:00,VALID,915.055,VALID,0,VALID,98.1539,VALID,0.0169808,VALID,19.3751,VALID,93,VALID,0.922768,
2001-01-02, 03:11:00,VALID,915.06,VALID,0,VALID,98.1819,VALID,0,VALID,19.3749,VALID,81,VALID,0.599662,
2001-01-02, 03:12:00,VALID,915.078,VALID,0,VALID,98.1793,VALID,0,VALID,19.355,VALID,73,VALID,0.561233,
2001-01-02, 03:13:00,VALID,915.099,VALID,0,VALID,98.1564,VALID,0,VALID,19.3485,VALID,71,VALID,0.565789,
2001-01-02, 03:14:00,VALID,915.104,VALID,0,VALID,98.1602,VALID,0,VALID,19.3389,VALID,76,VALID,0.497179,
2001-01-02, 03:15:00,VALID,915.11,VALID,0,VALID,98.2022,VALID,0.0169808,VALID,19.3421,VALID,83,VALID,0.363692,
2001-01-02, 03:16:00,VALID,915.117,VALID,0,VALID,98.2378,VALID,0,VALID,19.3555,VALID,87,VALID,0.688133,
2001-01-02, 03:17:00,VALID,915.123,VALID,0,VALID,98.2327,VALID,0,VALID,19.3488,VALID,92,VALID,0.70795,
2001-01-02, 03:18:00,VALID,915.126,VALID,0,VALID,98.2315,VALID,0,VALID,19.349,VALID,91,VALID,0.745477,
2001-01-02, 03:19:00,VALID,915.142,VALID,0,VALID,98.2378,VALID,0,VALID,19.3361,VALID,90,VALID,1.03167,
2001-01-02, 03:20:00,VALID,915.154,VALID,0,VALID,98.2709,VALID,-0.0339617,VALID,19.3324,VALID,84,VALID,1.09128,
2001-01-02, 03:21:00,VALID,915.155,VALID,0,VALID,98.281,VALID,0,VALID,19.3528,VALID,92,VALID,1.06715,
2001-01-02, 03:22:00,VALID,915.159,VALID,0,VALID,98.276,VALID,0,VALID,19.3525,VALID,84,VALID,1.14219,
2001-01-02, 03:23:00,VALID,915.15,VALID,0,VALID,98.3167,VALID,0.0169808,VALID,19.3356,VALID,96,VALID,1.23998,
2001-01-02, 03:24:00,VALID,915.162,VALID,0,VALID,98.3357,VALID,0,VALID,19.3195,VALID,91,VALID,1.03054,
2001-01-02, 03:25:00,VALID,915.161,VALID,0,VALID,98.3739,VALID,0.0339617,VALID,19.3229,VALID,87,VALID,1.0529,
2001-01-02, 03:26:00,VALID,915.17,VALID,0,VALID,98.384,VALID,0.0169808,VALID,19.2973,VALID,87,VALID,1.02956,
2001-01-02, 03:27:00,VALID,915.189,VALID,0,VALID,98.4222,VALID,0,VALID,19.2807,VALID,86,VALID,0.724029,
2001-01-02, 03:28:00,VALID,915.196,VALID,0,VALID,98.454,VALID,-0.0169808,VALID,19.271,VALID,95,VALID,0.869038,
2001-01-02, 03:29:00,VALID,915.216,VALID,0,VALID,98.4921,VALID,0,VALID,19.2812,VALID,94,VALID,0.716146,
2001-01-02, 03:30:00,VALID,915.235,VALID,0,VALID,98.5061,VALID,0,VALID,19.275,VALID,83,VALID,0.716283,
2001-01-02, 03:31:00,VALID,915.256,VALID,0,VALID,98.5048,VALID,0.0169808,VALID,19.2516,VALID,78,VALID,0.394215,
2001-01-02, 03:32:00,VALID,915.275,VALID,0,VALID,98.4959,VALID,0,VALID,19.2591,VALID,82,VALID,0.149816,
2001-01-02, 03:33:00,VALID,915.289,VALID,0,VALID,98.5214,VALID,0,VALID,19.2551,VALID,60,VALID,0.238281,
2001-01-02, 03:34:00,VALID,915.313,VALID,0,VALID,98.4896,VALID,0,VALID,19.2482,VALID,71,VALID,0.963049,
2001-01-02, 03:35:00,VALID,915.31,VALID,0,VALID,98.4057,VALID,0,VALID,19.2648,VALID,70,VALID,1.35609,
2001-01-02, 03:36:00,VALID,915.323,VALID,0,VALID,98.2518,VALID,0,VALID,19.2678,VALID,61,VALID,0.979519,
2001-01-02, 03:37:00,VALID,915.333,VALID,0,VALID,98.1183,VALID,0,VALID,19.3301,VALID,84,VALID,0.535714,
2001-01-02, 03:38:00,VALID,915.343,VALID,0,VALID,97.9949,VALID,0,VALID,19.3322,VALID,61,VALID,0.709736,
2001-01-02, 03:39:00,VALID,915.35,VALID,0,VALID,97.822,VALID,0.0339617,VALID,19.3622,VALID,40,VALID,0.473011,
2001-01-02, 03:40:00,VALID,915.351,VALID,0,VALID,97.7381,VALID,0.0339617,VALID,19.3746,VALID,74,VALID,0.147545,